DW3147 Weather Reports


time (UTC)temp
F
wind
direction
speed
knots
gust
knots
rain 1hr
in
rain 24hr
in
rain mn
in
humidity
%
barometer
mb
20260504081033 63 345 0.0 0.0 0.00 0.00 0.00 56 1008.7
20260504045033 70 28 1.7 7.0 0.00 0.00 0.00 46 1008.4
20260504044032 70 54 2.6 9.6 0.00 0.00 0.00 46 1008.4
20260504043031 70 26 0.9 7.0 0.00 0.00 0.00 45 1008.3
20260504042032 72 23 1.7 9.6 0.00 0.00 0.00 42 1008.4
20260504035031 71 333 1.7 7.8 0.00 0.00 0.00 45 1008.2
20260504034031 71 360 2.6 4.3 0.00 0.00 0.00 44 1008.2
20260504032032 74 341 2.6 4.3 0.00 0.00 0.00 39 1008.4
20260504031031 75 331 2.6 4.3 0.00 0.00 0.00 37 1008.5
20260504025031 78 360 1.7 5.2 0.00 0.00 0.00 33 1008.6
20260504024032 78 331 2.6 7.0 0.00 0.00 0.00 31 1008.6
20260504021031 79 270 0.9 4.3 0.00 0.00 0.00 30 1008.7
20260504020101 80 315 3.5 5.2 0.00 0.00 0.00 30 1008.8
20260504015032 80 320 1.7 4.3 0.00 0.00 0.00 30 1008.9
20260504014030 80 286 0.0 5.2 0.00 0.00 0.00 31 1009.0
20260504013031 81 341 0.9 7.8 0.00 0.00 0.00 30 1009.1
20260504012031 81 264 3.5 7.0 0.00 0.00 0.00 28 1009.3
20260504011030 81 259 0.0 6.1 0.00 0.00 0.00 28 1009.4
20260504010101 81 275 2.6 7.8 0.00 0.00 0.00 29 1009.5
20260504005030 81 235 2.6 7.8 0.00 0.00 0.00 30 1009.6
20260504004030 81 233 1.7 6.1 0.00 0.00 0.00 29 1009.8
20260504003031 82 286 1.7 6.1 0.00 0.00 0.00 33 1009.9
20260504001031 81 294 2.6 5.2 0.00 0.00 0.00 32 1010.0
20260503235031 82 278 1.7 5.2 0.00 0.00 0.00 32 1010.3
20260503234030 82 224 2.6 6.1 0.00 0.00 0.00 31 1010.4
20260503233030 81 272 6.1 9.6 0.00 0.00 0.00 28 1010.4
20260503232030 82 290 3.5 8.7 0.00 0.00 0.00 28 1010.6
20260503231030 81 259 3.5 8.7 0.00 0.00 0.00 29 1010.8
20260503230100 81 243 2.6 8.7 0.00 0.00 0.00 32 1011.0
20260503225031 80 320 1.7 8.7 0.00 0.00 0.00 31 1011.1
20260503224030 80 291 2.6 7.0 0.00 0.00 0.00 33 1011.2
20260503223031 80 277 1.7 7.8 0.00 0.00 0.00 32 1011.3
20260503222030 79 279 3.5 7.8 0.00 0.00 0.00 33 1011.5
20260503221030 79 222 5.2 7.0 0.00 0.00 0.00 35 1011.6
20260503220100 79 279 5.2 6.1 0.00 0.00 0.00 36 1011.7
20260503215031 77 296 2.6 7.8 0.00 0.00 0.00 36 1011.9
20260503214030 78 315 3.5 7.0 0.00 0.00 0.00 37 1012.0
20260503213030 78 265 2.6 8.7 0.00 0.00 0.00 40 1012.1
20260503212100 78 279 3.5 7.8 0.00 0.00 0.00 38 1012.1
20260503211100 78 299 2.6 7.0 0.00 0.00 0.00 39 1012.2
20260503210100 77 309 4.3 7.0 0.00 0.00 0.00 41 1012.3
20260503205059 77 269 7.0 8.7 0.00 0.00 0.00 43 1012.5
20260503204100 76 256 2.6 7.0 0.00 0.00 0.00 43 1012.6
20260503203059 76 259 6.1 7.0 0.00 0.00 0.00 44 1012.6
20260503202100 75 274 2.6 6.1 0.00 0.00 0.00 44 1012.8
20260503201059 76 232 3.5 5.2 0.00 0.00 0.00 48 1012.8
20260503195100 75 270 0.9 6.1 0.00 0.00 0.00 50 1013.1
20260503194100 74 271 2.6 7.0 0.00 0.00 0.00 50 1013.2
20260503192029 74 263 3.5 4.3 0.00 0.00 0.00 51 1013.4
20260503191059 74 276 3.5 5.2 0.00 0.00 0.00 49 1013.5
20260503190059 73 336 4.3 6.1 0.00 0.00 0.00 50 1013.6
20260503183100 72 270 2.6 3.5 0.00 0.00 0.00 52 1013.8
20260503180059 70 150 0.9 6.1 0.00 0.00 0.00 51 1013.9
20260503175059 70 141 1.7 5.2 0.00 0.00 0.00 52 1014.0
20260503174059 70 245 2.6 5.2 0.00 0.00 0.00 50 1013.9
20260503173059 70 157 0.0 3.5 0.00 0.00 0.00 51 1014.1
20260503172100 68 103 1.7 4.3 0.00 0.00 0.00 54 1014.1